Location: ????????
(37.9452°N, 23.1472°E)
Time: 14:50:52
(UTC+00:00)

Sich 1 Rocket - Pass Details

Date: 18 April 2024
Orbit: 615 x 648 km, 82.5° (Epoch: 18 May)

Event Time Altitude Azimuth Distance (km) Brightness Sun altitude
Exits shadow 19:04:01 14° 202° (SSW) 1,743 5.7 -21.8°
Maximum altitude 19:07:43 56° 279° (W) 743 4.2 -22.4°
Drops below altitude 10° 19:12:06 10° 358° (N) 2,010 6.7 -23.1°
Sets 19:14:24 0° 3° (N) 2,928 7.5 -23.4°
